Weather History for Cleveland, OH

Change the Weather History Date:

Sunday, April 28, 2013

  Actual Average Record
Temperature  
Mean Temperature 53 °F 54 °F  
Max Temperature 58 °F 64 °F 88 °F (1986)
Min Temperature 48 °F 45 °F 25 °F (1947)
Degree Days  
Heating Degree Days 12 11  
Month to date heating degree days 471 447  
Since 1 July heating degree days 5610 5490  
Cooling Degree Days 0 1  
Month to date cooling degree days 2 8  
Year to date cooling degree days 2 9  
Growing Degree Days 2 (Base 50)    
Moisture  
Dew Point 49 °F    
Average Humidity 74    
Maximum Humidity 93    
Minimum Humidity 54    
Precipitation  
Precipitation 0.19 in 0.11 in 1.56 in (1959)
Month to date precipitation 3.44 3.28  
Year to date precipitation 10.16 11.27  
Snow  
Snow 0.00 in 0.10 in - ()
Month to date snowfall 0.3 3.3  
Since 1 July snowfall 51.7 68.1  
Snow Depth 0.00 in    
Sea Level Pressure  
Sea Level Pressure 29.98 in    
Wind  
Wind Speed 11 mph (SSE)    
Max Wind Speed 18 mph    
Max Gust Speed 23 mph    
Visibility 9 miles    
Events Rain    
T = Trace of Precipitation, MM = Missing Value Source: NWS Daily Summary

Daily Weather History Graph

Daily Weather History Graph

Search for Another Location

Airport:

Trip Planner

Search our weather history database for the weather conditions in past years. The results will help you decide how hot, cold, wet, or windy it might be!

Date:

Astronomy

Apr. 28, 2013 Rise Set
Actual Time 6:28 AM EDT 8:22 PM EDT
Civil Twilight 5:58 AM EDT 8:51 PM EDT
Nautical Twilight 5:22 AM EDT 9:28 PM EDT
Astronomical Twilight 4:43 AM EDT 10:07 PM EDT
Moon 11:52 PM EDT (4/28) 8:42 AM EDT (4/28)
Length of Visible Light 14h 53m
Length of Day
13h 53m
Waning Gibbous, 89% of the Moon is Illuminated
Apr 28
Waning Gibbous
May 2
Last Quarter
May 9
New
May 18
First Quarter
May 25
Full

Hourly Weather History & Observations

Time (EDT) Temp. Dew Point Humidity Pressure Visibility Wind Dir Wind Speed Gust Speed Precip Events Conditions
12:51 AM 48.0 °F 39.9 °F 74% 30.11 in 10.0 mi Calm Calm - N/A   Mostly Cloudy
1:51 AM 50.0 °F 39.0 °F 66% 30.12 in 10.0 mi South 8.1 mph - N/A   Mostly Cloudy
2:51 AM 51.1 °F 36.0 °F 56% 30.09 in 10.0 mi SSE 8.1 mph - N/A   Mostly Cloudy
3:51 AM 52.0 °F 37.0 °F 57% 30.07 in 10.0 mi SSE 6.9 mph - N/A   Mostly Cloudy
4:51 AM 53.1 °F 37.0 °F 55% 30.07 in 10.0 mi SE 4.6 mph - N/A   Overcast
5:51 AM 55.9 °F 41.0 °F 57% 30.06 in 10.0 mi SE 8.1 mph - N/A   Overcast
6:51 AM 55.9 °F 41.0 °F 57% 30.05 in 10.0 mi ESE 5.8 mph - N/A   Overcast
7:51 AM 55.9 °F 41.0 °F 57% 30.05 in 10.0 mi ESE 8.1 mph - N/A   Overcast
8:51 AM 57.0 °F 42.1 °F 57% 30.04 in 10.0 mi SE 9.2 mph - N/A   Overcast
9:51 AM 57.0 °F 45.0 °F 64% 30.03 in 10.0 mi SSE 13.8 mph - 0.00 in Rain Light Rain
10:51 AM 54.0 °F 48.9 °F 83% 30.02 in 7.0 mi SSE 16.1 mph - 0.02 in Rain Light Rain
11:51 AM 55.0 °F 51.1 °F 86% 30.01 in 6.0 mi SSE 13.8 mph 21.9 mph 0.03 in Rain Light Rain
12:12 PM 55.0 °F 51.1 °F 86% 30.01 in 8.0 mi SSE 15.0 mph - 0.01 in Rain Light Rain
12:38 PM 55.0 °F 51.1 °F 86% 29.99 in 7.0 mi SSE 12.7 mph - 0.02 in Rain Light Rain
12:51 PM 55.0 °F 52.0 °F 89% 29.99 in 7.0 mi SE 12.7 mph - 0.03 in Rain Light Rain
1:47 PM 55.4 °F 53.6 °F 94% 29.97 in 10.0 mi SE 11.5 mph - 0.06 in Rain Light Rain
1:51 PM 55.9 °F 53.1 °F 90% 29.97 in 10.0 mi SSE 11.5 mph - 0.06 in Rain Light Rain
2:51 PM 55.9 °F 53.1 °F 90% 29.95 in 9.0 mi SSE 10.4 mph - 0.05 in Rain Light Rain
3:04 PM 55.9 °F 54.0 °F 93% 29.94 in 10.0 mi SSE 9.2 mph - 0.00 in Rain Light Rain
3:51 PM 57.0 °F 54.0 °F 89% 29.94 in 10.0 mi SSE 6.9 mph - 0.00 in   Overcast
4:51 PM 57.9 °F 54.0 °F 87% 29.92 in 10.0 mi SSE 9.2 mph - N/A   Overcast
5:46 PM 57.2 °F 55.4 °F 94% 29.91 in 6.0 mi SSE 10.4 mph - 0.00 in Rain Light Rain
5:51 PM 57.9 °F 55.0 °F 90% 29.91 in 8.0 mi SSE 9.2 mph - 0.00 in Rain Light Rain
6:38 PM 57.9 °F 55.0 °F 90% 29.90 in 10.0 mi SSE 11.5 mph - 0.00 in   Overcast
6:51 PM 57.9 °F 55.0 °F 90% 29.90 in 10.0 mi SSE 16.1 mph - 0.00 in   Overcast
7:37 PM 57.9 °F 55.0 °F 90% 29.89 in 10.0 mi SSE 13.8 mph 19.6 mph 0.00 in   Overcast
7:51 PM 57.9 °F 54.0 °F 87% 29.89 in 10.0 mi SSE 13.8 mph - 0.00 in   Overcast
8:51 PM 57.9 °F 54.0 °F 87% 29.90 in 10.0 mi SSE 10.4 mph - N/A   Overcast
9:51 PM 57.9 °F 54.0 °F 87% 29.90 in 10.0 mi SSE 11.5 mph - N/A   Mostly Cloudy
10:51 PM 57.9 °F 54.0 °F 87% 29.90 in 10.0 mi SSE 12.7 mph - N/A   Mostly Cloudy
11:51 PM 57.0 °F 54.0 °F 89% 29.89 in 10.0 mi South 15.0 mph - N/A   Mostly Cloudy